www.pogodaiklimat.ru
ПОГОДА в Вакавиле
Время
и дата
15:53 30.06
16:53 30.06
17:53 30.06
18:53 30.06
19:53 30.06
20:53 30.06
21:53 30.06
22:53 30.06
23:53 30.06
00:53 01.07
01:53 01.07
02:53 01.07
03:53 01.07
04:53 01.07
05:53 01.07
06:53 01.07
07:53 01.07
08:53 01.07
09:53 01.07
10:53 01.07
11:53 01.07
12:53 01.07
13:53 01.07
14:53 01.07
15:53 01.07
16:53 01.07
17:53 01.07
18:53 01.07
19:53 01.07
20:53 01.07
21:53 01.07
22:53 01.07
23:53 01.07
00:53 02.07
01:53 02.07
02:53 02.07
03:53 02.07
04:53 02.07
05:53 02.07
06:53 02.07
07:53 02.07
08:53 02.07
09:53 02.07
10:53 02.07
11:53 02.07
12:53 02.07
13:53 02.07
14:53 02.07
Ветер
(напр.,м/с)
Видим. Явления Облачность Т
(С)
Тd
(С)
f
(%)
Тe
(С)
Тes
(С)
Комфортность P
(гПа)
Po
(гПа)
Тmin
(С)
Tmax
(С)
R
(мм)
R24
(мм)
S
(см)
ЮЗ 5
{8}
16 км ясно +35.0 +13.3 27 +35 +42 очень
жарко
1011.8 1008.0 +32.8 +36.1
ЮЗ 4 16 км ясно +34.4 +13.3 28 +35 +41 очень
жарко
1011.2 1007.3
ЮЗ 5
{8}
16 км ясно +32.8 +13.3 31 +34 +36 очень
жарко
1011.1 1007.3
ЮЗ 3 16 км ясно +30.6 +13.3 35 +32 +33 жарко 1011.1 1007.0
Ю 2 16 км ясно +28.9 +13.3 38 +30 +31 жарко 1011.2 1007.3
Ю 2 16 км ясно +27.2 +13.3 42 +29 +29 жарко 1011.6 1007.7
штиль 0 16 км ясно +25.0 +12.8 47 +27 +27 жарко 1011.5 1007.7 +24.4 +35.0
штиль 0 16 км ясно +22.8 +12.8 53 +26 +26 жарко 1011.2 1007.3
ЮВ 2 16 км ясно +21.7 +12.8 57 +24 +24 комфорт 1011.0 1007.0
штиль 0 16 км ясно +17.8 +12.2 70 +18 +18 1011.0 1007.0
штиль 0 16 км ясно +17.2 +12.8 75 +17 +17 1011.1 1007.0
В 2 16 км ясно +17.8 +12.2 70 +18 +18 1011.5 1007.7
штиль 0 16 км ясно +17.2 +12.8 75 +17 +17 1011.5 1007.7 +16.1 +25.6
штиль 0 16 км ясно +15.6 +11.7 78 +15 +15 1011.7 1007.7
штиль 0 16 км ясно +21.1 +13.9 63 +24 +24 комфорт 1012.1 1008.0
штиль 0 16 км ясно +23.9 +13.9 54 +26 +28 жарко 1012.1 1008.0
В 2 16 км ясно +27.8 +14.4 44 +30 +34 жарко 1012.4 1008.3
нст 2 16 км ясно +30.6 +13.9 36 +32 +40 жарко 1012.2 1008.3
С 3 16 км ясно +34.4 +10.6 23 +34 +44 очень
жарко
1011.9 1008.0 +15.6 +35.0
С 3 16 км ясно +36.1 +11.1 22 +35 +49 очень
жарко
1011.6 1007.7
Ю 3 16 км ясно +35.6 +13.3 26 +36 +52 опасность
солнечного
удара
1011.2 1007.3
нст 2 16 км ясно +37.2 +13.9 25 +38 +58 опасность
солнечного
удара
1010.5 1006.7
нст 2 16 км ясно +38.3 +13.3 23 +39 +58 опасность
солнечного
удара
1010.0 1006.0
Ю 3 16 км ясно +38.3 +13.3 23 +39 +53 опасность
солнечного
удара
1009.5 1005.6
ЮЗ 4 16 км ясно +37.8 +13.3 23 +38 +47 очень
жарко
1008.9 1005.0 +34.4 +38.9
ЮЗ 4
{8}
16 км ясно +37.2 +12.2 22 +37 +43 очень
жарко
1008.3 1004.3
ЮЗ 6 16 км ясно +36.7 +12.2 23 +36 +38 очень
жарко
1008.0 1004.0
З 2 16 км ясно +34.4 +12.2 26 +34 +36 очень
жарко
1008.0 1004.0
СЗ 3 16 км ясно +31.7 +10.6 27 +31 +31 жарко 1008.0 1004.0
штиль 0 16 км ясно +28.3 +12.2 37 +29 +29 жарко 1008.2 1004.3
ЮЗ 2 16 км ясно +26.1 +11.7 41 +27 +27 жарко 1008.1 1004.3 +26.1 +38.3
ЮЗ 2 16 км ясно +23.9 +11.1 45 +25 +25 комфорт 1007.9 1004.0
штиль 0 16 км ясно +27.8 +8.9 30 +28 +28 жарко 1007.9 1004.0
С 5 16 км ясно +32.2 +4.4 17 +30 +30 жарко 1007.5 1003.6
С 7
{14}
16 км ясно +32.2 +3.9 17 +30 +30 жарко 1007.3 1003.3
С 8
{12}
16 км ясно +32.2 +5.6 19 +30 +30 жарко 1007.5 1003.6
С 7
{11}
16 км ясно +31.7 +5.0 19 +30 +30 жарко 1007.7 1004.0 +22.8 +32.8
С 5 16 км ясно +30.6 +5.6 21 +29 +29 жарко 1008.2 1004.3
С 5
{10}
16 км ясно +31.7 +6.1 20 +30 +30 жарко 1008.6 1004.6
С 6
{12}
16 км ясно +32.8 +6.7 20 +31 +31 жарко 1009.2 1005.3
С 6
{11}
16 км ясно +34.4 +6.7 18 +32 +34 жарко 1009.6 1005.6
С 6
{11}
16 км ясно +35.6 +8.9 20 +34 +37 очень
жарко
1009.8 1006.0
С 8
{12}
16 км ясно +36.7 +8.9 18 +35 +37 очень
жарко
1009.8 1006.0 +30.6 +36.7
С 7
{12}
16 км ясно +38.3 +8.3 16 +36 +41 очень
жарко
1009.5 1005.6
С 6
{10}
16 км ясно +40.6 +8.9 15 +39 +46 очень
жарко
1009.2 1005.3
СВ 7 16 км ясно +40.6 +8.9 15 +39 +45 очень
жарко
1008.5 1004.6
СВ 5
{9}
16 км ясно +41.1 +8.3 14 +39 +50 очень
жарко
1007.8 1004.0
СВ 4 16 км ясно +42.2 +5.0 10 +39 +51 опасность
солнечного
удара
1007.4 1003.6
Местоположение метеостанции Nut Tree Airport: широта 38.3778 долгота -121.9575 высота над уровнем моря 34 м.
В архиве по умолчанию представлена погода в Вакавиле за последние 1-2 суток. Обновление информации о фактической погоде в базе происходит ежечасно! Архивные данные за месяц целиком и за предыдущие месяцы Вы можете получить, выбрав интересующий диапазон дат из раскрывающегося списка и нажав кнопку "Ввод!".
Внимание! Архив погоды МЕТАР в базе сайта по станциям, не включенным в климатический монитор, хранится не более 60 дней. Нет смысла пытаться выбрать более раннюю дату.
*Определитесь, кто Вы:
Внимание! Время в таблицах - местное (без учета летнего времени). Для получения всемирного времени необходимо вычесть поправку, которая равна -8 ч.
Смотрите также архив погоды в соседних городах и на ближайших метеорологических станциях:
Партнеры нашего сайта:      
Пояснения к столбцам:
  • Ветер - указаны скорость ветра в м/с - средняя за 10 мин, порывы в срок и между сроками (в фигурных скобках) и направление, откуда дует ветер: С - северный,
  • СВ - северо-восточный, В - восточный, ЮВ - юго-восточный, Ю - южный, ЮЗ - юго-западный, З - западный, СЗ - северо-западный.
  • Видимость - горизонтальная дальность видимости в метрах или километрах. При видимости от 1 до 10 км при отсутствии осадков обычно наблюдается дымка, при ухудшении видимости до 1 км и менее - туман. В сухую погоду видимость может ухудшаться дымом, пылью или мглою.
  • Явления - указаны атмосферные явления, наблюдавшиеся в срок или в последний час перед сроком; фигурными скобками обозначены явления, наблюдавшиеся между сроками (за 1-3 часа до срока); квадратными скобками обозначены град или гололедные отложения с указанием их диаметра в мм.
  • Облачность - указаны через наклонную черту общая и нижняя облачность в баллах и высота нижней границы облаков в метрах; квадратными скобками обозначены формы облаков: Ci - перистые, Cs - перисто-слоистые, Cc - перисто-кучевые, Ac - высококучевые, As - высокослоистые, Sc - слоисто-кучевые, Ns - слоисто-дождевые, Cu - кучевые, Cb - кучево-дождевые. Подробнее классификацию облаков см. в Атласе облаков (PDF).
  • T - Температура воздуха - температура, измеренная на высоте 2 м над землей.
  • Td - Температура точки росы - температура, при понижении до которой содержащийся в воздухе водяной пар достигнет насыщения.
  • f - Относительная влажность воздуха - влажноcть воздуха, измеренная на высоте 2 м над землей.
  • Te - Эффективная температура - температура, которую ощущает одетый по сезону человек в тени. Характеристика душности погоды. При расчете учитывается влияние влажности воздуха и скорости ветра на теплоощущения человека.
  • Tes - Эффективная температура на солнце - температура, которую ощущает человек, с поправкой на солнечный нагрев. Характеристика знойности погоды. Зависит от высоты солнца над горизонтом, облачности и скорости ветра. Ночью, в пасмурную погоду, а также при ветре 12 м/с и более поправка равна нулю.
  • P - Атмосферное давление - приведенное к уровню моря атмосферное давление.
  • Po - Атмосферное давление - измеренное на уровне метеостанции атмосферное давление.
  • Tmin - Минимальная температура - минимум температуры воздуха на высоте 2 м над землей.
  • Tmax - Максимальная температура - максимум температуры воздуха на высоте 2 м над землей.
  • R - Количество осадков - Количество выпавших осадков за период времени, мм. При наведении курсора мыши на число - период времени, за который выпало указанное количество осадков.
  • R24 - Количество осадков - Количество выпавших осадков за 24 часа, мм.
  • S - Снежный покров - Высота снежного покрова, см. При наведении курсора мыши на число - состояние снежного покрова и степень покрытия местности в баллах.